Regional Weather Roundup
Issued by NWS

Home | Current Version | Previous Version | Text Only | Print | Product List | Glossary Off
Versions: 1 2 3 4 5 6 7 8 9 10 11 12 13 14 15 16 17 18 19 20 21 22 23 24 25 26 27 28 29 30 31 32 33 34 35 36 37 38 39 40 41 42 43 44 45 46 47 48 49 50

000
ASUS43 KLOT 231906
RWRIL

ILLINOIS REGIONAL WEATHER ROUNDUP
NATIONAL WEATHER SERVICE CHICAGO/ROMEOVILLE IL
200 PM CDT WED APR 23 2014

NOTE: "FAIR" INDICATES FEW OR NO CLOUDS BELOW 12,000 FEET WITH NO
SIGNIFICANT WEATHER AND/OR OBSTRUCTIONS TO VISIBILITY.

* THESE STATIONS ARE NOT UNDER NWS QUALITY CONTROL. THEY ALSO MAY NOT
  REPORT WEATHER SUCH AS PRECIPITATION OR FOG.

ILZ001-002-007-009-015-016-024-232000-
NORTHWEST ILLINOIS

CITY           SKY/WX    TMP DP  RH WIND       PRES   REMARKS
MOLINE         PTSUNNY   57  28  33 SE10      30.09F
STERLING*      CLOUDY    54  30  40 SE8G16    30.11F
SAVANNA*       CLOUDY    55  28  35 E9        30.11F
$$

ILZ003-004-008-010-011-017-018-232000-
NORTH CENTRAL ILLINOIS

CITY           SKY/WX    TMP DP  RH WIND       PRES   REMARKS
ROCKFORD       CLOUDY    54  27  35 VRB3      30.14F
FREEPORT*      CLOUDY    51  22  31 SE7       30.13F
ROCHELLE*      CLOUDY    55  26  31 E10G17    30.12F
DE KALB*       PTSUNNY   53  26  36 E9        30.14F
PERU*          MOSUNNY   55  31  40 CALM      30.11F
$$

ILZ005-006-012>014-019>023-232000-
NORTHEAST ILLINOIS

CITY           SKY/WX    TMP DP  RH WIND       PRES   REMARKS
CHICAGO-OHARE  PTSUNNY   50  25  37 E10G16    30.15F
CHICAGO-MIDWAY PTSUNNY   50  28  42 N13       30.15F
AURORA         MOSUNNY   54  27  35 E8        30.14F
LANSING*       SUNNY     47  29  50 NE12      30.16F
JOLIET*        SUNNY     53  29  39 N6        30.15S
WAUKEGAN       SUNNY     44  24  45 MISG      30.17F
DUPAGE AIRPORT MOSUNNY   53  27  36 E5G17     30.13F
KANKAKEE*      SUNNY     53  31  43 NE8       30.14F
WHEELING       SUNNY     47  26  44 E9        30.18F
MORRIS*        SUNNY     55  24  31 E5        30.13S
ROMEOVILLE*    SUNNY     52  25  35 E10G16    30.14S
NORTHERLY ISL    N/A     43  31  63 N13         N/A
$$

LMZ740>746-232000-
SOUTHERN LAKE MICHIGAN

STATION/POSITION SKY/WX   TEMP    WIND        PRES    VSBY  WAVE
                          AIR SEA DIR/SP/G                  HT/PER
                          (F)     (DEG/KT/KT) (MB)    (MI)  (FT/S)
WAUKEGAN HARBOR            37      50/  9/ 10 1023.4F
HARRISON CRIB              37     360/ 11/ 12   N/A
BURNHAM HARBOR             43      10/ 11/ 11   N/A
CALUMET HARBOR             41     360/  9/ 15 1022.4F
MICHIGAN CITY              39     330/ 10/ 12   N/A
$$

ILZ025>027-034>036-040-047-049-050-058-095>099-232000-
WEST-CENTRAL ILLINOIS

CITY           SKY/WX    TMP DP  RH WIND       PRES   REMARKS
QUINCY         PTSUNNY   59  33  37 SE15      30.05
GALESBURG*     MOSUNNY   60  33  36 E7        30.08F
MACOMB*        MOSUNNY   58  29  33 E15       30.09F
JACKSONVILLE*  MOSUNNY   60  31  33 E12       30.08F
PITTSFIELD*    PTSUNNY   61  32  33 SE10      30.07F
$$

ILZ028>032-037-038-041>044-048-051>054-059>061-232000-
CENTRAL ILLINOIS

CITY           SKY/WX    TMP DP  RH WIND       PRES   REMARKS
PONTIAC        SUNNY     57  28  33 E10       30.12F
BLOOMINGTON    SUNNY     56  25  30 VRB3      30.12F
DECATUR        SUNNY     61  28  28 E9        30.10F
PEORIA         MOSUNNY   60  28  29 VRB5      30.09F
LACON*         MOSUNNY   55  30  38 E9        30.09F
LINCOLN*       SUNNY     61  27  27 E5        30.08F
SPRINGFIELD    SUNNY     62  32  32 E7        30.09F
TAYLORVILLE    SUNNY     59  28  31 NE6       30.09F
$$

ILZ033-039-045-046-055>057-062-063-232000-
EAST-CENTRAL ILLINOIS

CITY           SKY/WX    TMP DP  RH WIND       PRES   REMARKS
CHAMPAIGN      SUNNY     59  29  31 NE8       30.10F
RANTOUL*       SUNNY     59  27  29 CALM      30.12F
MATTOON        SUNNY     57  28  33 VRB5      30.09F
PARIS*         SUNNY     58  29  34 CALM      30.11F
$$

ILZ079-100>102-232000-
SOUTHWEST ILLINOIS

CITY           SKY/WX    TMP DP  RH WIND       PRES   REMARKS
ALTON          MOSUNNY   61  30  31 E13       30.07F
BELLEVILLE     MOSUNNY   62  37  38 SE8       30.07F
CAHOKIA*       SUNNY     64  39  39 SE13      30.06F
SPARTA*        SUNNY     61  37  41 SE9       30.07F
$$

ILZ064>066-069>071-074>076-080>082-084>086-088>090-092>094-232000-
SOUTH-CENTRAL ILLINOIS

CITY           SKY/WX    TMP DP  RH WIND       PRES   REMARKS
CARBONDALE     SUNNY     64  41  42 VRB5      30.07
CAIRO*         SUNNY     69  37  30 NE5       30.05F
MARION         MOSUNNY   64  34  32 SE14      30.08F
MT. VERNON     SUNNY     63  34  34 E7        30.10F
CENTRALIA*       N/A    N/A N/A N/A SE3       30.08F
SALEM*         SUNNY     62  35  35 SE7       30.09F
METROPOLIS*    SUNNY     65  30  27 CALM      30.05F
$$

ILZ067-068-072-073-078-083-087-091-232000-
SOUTHEAST ILLINOIS

CITY           SKY/WX    TMP DP  RH WIND       PRES   REMARKS
FLORA*         SUNNY     59  31  34 N9        30.10F
FAIRFIELD*     SUNNY     61  34  36 NE3       30.09F
HARRISBURG*    SUNNY     62  34  35 E6        30.08F
ROBINSON*      SUNNY     61  33  33 NW3       30.10F
CARMI*         SUNNY     63  33  33 NE8       30.08F
$$

ABBREVIATIONS USED IN REMARKS
   TC - TEMPERATURE IN CELSIUS
  WCI - WIND CHILL INDEX
   HX - HEAT INDEX
  VSB - VISIBILITY
$$




USA.gov is the U.S. government's official web portal to all federal, state and local government web resources and services.